Retour au catalogue

STARLINK-33995

ActifCommunicationsVLEO
NORAD 63706·PAYLOAD·🇺🇸 United States

Lancé Apr 28, 2025 depuis Vandenberg Space Force Base

Loading…

Prochains Passages (prochaines 24 heures)

TLE

FraisSource: CelesTrak SupGP

Époque: Sep 15, 2026, 03:18 UTC

1 63706C 25087K   26258.13798611 -.00023787  00000+0 -70289-3 0  2588
2 63706  53.1594  59.0201 0001153  90.2308 246.8818 15.34398809    18

Suivez STARLINK-33995 en temps réel avec AllMySat

Download on the App Store